VR2HK-13 Weather Reports


time (UTC)temp
C
wind
direction
speed
KPH
gust
KPH
rain 1hr
cm
rain 24hr
cm
rain mn
cm
humidity
%
barometer
mb
20260509054551 22 294 8.0 30.6 0.00 22.45 0.00 82 1015.1
20260509054540 22 334 8.0 30.6 0.00 22.45 0.00 82 1015.2
20260509054039 23 60 8.0 24.1 0.00 22.58 0.00 83 1015.2
20260509053540 23 113 0.0 16.1 0.00 22.76 0.00 83 1015.3
20260509053531 23 132 0.0 16.1 0.00 22.76 0.00 83 1015.3
20260509053039 23 269 1.6 19.3 0.00 22.96 0.00 82 1015.4
20260509053021 23 275 1.6 19.3 0.00 22.96 0.00 82 1015.4
20260509052540 22 210 4.8 17.7 0.00 23.14 0.00 83 1015.4
20260509052511 22 274 6.4 17.7 0.00 23.14 0.00 82 1015.5
20260509052039 23 275 4.8 9.7 0.00 23.16 0.00 83 1015.5
20260509052000 23 259 1.6 6.4 0.00 23.16 0.00 83 1015.5
20260509051540 23 304 4.8 14.5 0.00 23.22 0.00 83 1015.5
20260509051451 23 295 9.7 14.5 0.00 23.24 0.00 83 1015.4
20260509051039 23 241 3.2 11.3 0.00 23.27 0.00 84 1015.5
20260509050539 23 231 4.8 11.3 0.00 23.39 0.00 83 1015.5
20260509050431 22 20 3.2 17.7 0.00 23.39 0.00 84 1015.6
20260509050039 22 11 6.4 17.7 0.00 23.44 0.00 83 1015.7
20260509045920 22 318 3.2 19.3 0.00 23.47 0.00 84 1015.7
20260509045539 22 315 6.4 33.8 0.00 23.60 0.00 83 1015.8
20260509045411 22 68 17.7 33.8 0.00 23.62 0.00 83 1015.8
20260509045039 23 276 4.8 11.3 0.00 23.75 0.00 84 1015.8
20260509044901 23 335 4.8 12.9 0.00 23.77 0.00 84 1015.7
20260509044539 23 272 6.4 14.5 0.00 23.90 0.00 84 1015.8
20260509044350 22 298 3.2 14.5 0.00 23.93 0.00 84 1015.9
20260509044039 22 284 4.8 33.8 0.00 23.95 0.00 84 1016.0
20260509043841 22 77 4.8 33.8 0.00 24.05 0.00 84 1016.0
20260509043539 22 236 11.3 24.1 0.00 24.16 0.00 84 1016.0
20260509043330 22 305 1.6 12.9 0.00 24.28 0.00 84 1016.1
20260509043039 22 283 6.4 12.9 0.00 24.36 0.00 84 1016.2
20260509042821 22 82 1.6 11.3 0.00 24.36 0.00 84 1016.3
20260509042539 22 351 3.2 14.5 0.00 24.38 0.00 84 1016.3
20260509042310 22 77 8.0 20.9 0.00 24.43 0.00 84 1016.3
20260509042039 22 348 3.2 22.5 0.00 24.49 0.00 84 1016.3
20260509041801 22 277 4.8 22.5 0.00 24.49 0.00 84 1016.3
20260509041539 22 23 4.8 19.3 0.00 24.59 0.00 84 1016.5
20260509041250 22 360 9.7 35.4 0.00 24.71 0.00 84 1016.4
20260509041039 22 0 12.9 35.4 0.00 24.71 0.00 84 1016.4
20260509040538 22 30 6.4 24.1 0.00 24.87 0.00 84 1016.4
20260509040230 22 241 8.0 27.4 0.00 24.97 0.00 85 1016.3
20260509040039 22 230 4.8 27.4 0.00 25.12 0.00 85 1016.3
20260509035720 22 36 3.2 19.3 0.00 25.27 0.00 85 1016.4
20260509035537 22 222 11.3 19.3 0.00 25.35 0.00 85 1016.4
20260509035210 22 330 4.8 27.4 0.00 0.03 0.00 85 1016.4
20260509035039 22 11 6.4 27.4 0.00 0.18 0.00 85 1016.4
20260509034700 22 15 6.4 16.1 0.00 0.30 0.00 85 1016.5
20260509034539 22 276 11.3 16.1 0.00 0.36 0.00 85 1016.5
20260509034150 22 230 11.3 20.9 0.00 0.56 0.00 85 1016.6
20260509034039 22 309 6.4 20.9 0.00 0.66 0.00 85 1016.6
20260509033640 22 247 6.4 22.5 0.00 0.74 0.00 85 1016.7
20260509033539 22 239 12.9 22.5 0.00 0.74 0.00 85 1016.6
20260509033130 22 240 4.8 16.1 0.00 0.89 0.00 85 1016.7
20260509033039 22 240 8.0 16.1 0.00 0.97 0.00 85 1016.7
20260509032620 22 183 4.8 12.9 0.00 1.14 0.00 85 1016.6
20260509032539 22 280 3.2 12.9 0.00 1.14 0.00 85 1016.6
20260509032109 22 263 4.8 20.9 0.00 1.40 0.00 85 1016.6
20260509032038 22 278 3.2 20.9 0.00 1.47 0.00 85 1016.6
20260509031600 22 48 3.2 27.4 0.00 1.68 0.00 85 1016.6
20260509031539 22 62 3.2 27.4 0.00 1.68 0.00 85 1016.6
20260509031049 22 67 6.4 16.1 0.00 1.98 0.00 85 1016.7
20260509031038 22 66 6.4 16.1 0.00 1.98 0.00 85 1016.7
20260509030541 22 44 8.0 32.2 0.00 2.16 0.00 85 1016.6
20260509030539 22 41 8.0 32.2 0.00 2.16 0.00 85 1016.6
20260509030038 22 358 6.4 19.3 0.00 2.24 0.00 85 1016.5
20260509030029 22 298 8.0 19.3 0.00 2.24 0.00 85 1016.4
20260509025538 22 338 6.4 25.7 0.00 2.51 0.00 85 1016.4
20260509025519 22 286 6.4 25.7 0.00 2.51 0.00 85 1016.4
20260509025038 22 209 3.2 11.3 0.00 2.77 0.00 85 1016.3
20260509025010 22 263 3.2 11.3 0.00 2.77 0.00 85 1016.3
20260509024538 22 224 1.6 19.3 0.00 3.00 0.00 85 1016.4
20260509024459 22 76 1.6 20.9 0.00 3.02 0.00 85 1016.5
20260509024038 22 8 12.9 29.0 0.00 3.20 0.00 85 1016.5
20260509023950 22 30 4.8 29.0 0.00 3.30 0.00 85 1016.5
20260509023538 22 29 9.7 25.7 0.00 3.38 0.00 85 1016.6
20260509023439 22 111 9.7 25.7 0.00 3.43 0.00 85 1016.6
20260509023038 22 280 9.7 16.1 0.00 3.66 0.00 85 1016.5
20260509022930 22 356 8.0 12.9 0.00 3.66 0.00 85 1016.6
20260509022538 22 266 8.0 24.1 0.00 3.81 0.00 85 1016.7
20260509022419 22 273 9.7 24.1 0.00 3.84 0.00 85 1016.7
20260509022038 22 255 4.8 11.3 0.00 3.96 0.00 85 1016.8
20260509021538 22 255 4.8 17.7 0.00 4.22 0.00 85 1016.8
20260509021359 22 211 4.8 16.1 0.00 4.27 0.00 85 1016.8
20260509021038 22 62 4.8 25.7 0.00 4.60 0.00 85 1016.8
20260509020849 22 35 3.2 25.7 0.00 4.70 0.00 85 1016.8
20260509020537 22 349 8.0 17.7 0.00 4.83 0.00 85 1016.7
20260509020339 22 116 8.0 32.2 0.00 4.88 0.00 85 1016.7
20260509020038 22 17 12.9 32.2 0.00 4.95 0.00 85 1016.6
20260509015829 22 81 14.5 29.0 0.00 5.05 0.00 85 1016.7
20260509015537 22 196 3.2 16.1 0.00 5.21 0.00 85 1016.8
20260509015319 22 128 4.8 22.5 0.00 5.31 0.00 85 1016.7
20260509015038 22 99 6.4 22.5 0.00 5.38 0.00 85 1016.8
20260509014809 22 197 11.3 22.5 0.00 5.64 0.00 85 1016.7
20260509014536 22 16 4.8 24.1 0.00 5.79 0.00 85 1016.8
20260509014259 22 240 8.0 24.1 0.00 5.92 0.00 85 1016.8
20260509013749 22 257 8.0 25.7 0.00 6.02 0.00 85 1016.6
20260509013537 22 13 8.0 25.7 0.00 6.20 0.00 85 1016.7
20260509013239 22 323 6.4 17.7 0.00 6.48 0.00 85 1016.7
20260509013038 22 64 6.4 17.7 0.00 6.60 0.00 85 1016.8
20260509012729 22 307 1.6 22.5 0.00 6.76 0.00 85 1016.7
20260509012537 22 286 6.4 24.1 0.00 6.78 0.00 85 1016.7
20260509012219 22 228 12.9 24.1 0.00 6.91 0.00 86 1016.6
20260509012037 22 244 4.8 11.3 0.00 6.96 0.00 86 1016.6
20260509011709 22 294 3.2 19.3 0.00 7.04 0.00 86 1016.6
20260509011537 22 202 11.3 19.3 0.00 7.04 0.00 86 1016.5
20260509011159 22 96 4.8 16.1 0.00 7.16 0.00 86 1016.5
20260509011037 22 51 6.4 20.9 0.00 7.19 0.00 86 1016.6
20260509010649 22 198 12.9 22.5 0.00 7.32 0.00 86 1016.5
20260509010537 22 200 3.2 22.5 0.00 7.37 0.00 86 1016.5
20260509010138 22 235 0.0 8.0 0.00 7.57 0.00 86 1016.5
20260509010037 22 360 3.2 11.3 0.00 7.57 0.00 86 1016.5
20260509005629 22 247 8.0 16.1 0.00 7.75 0.00 86 1016.3
20260509005537 22 221 11.3 16.1 0.00 7.77 0.00 86 1016.3
20260509005119 22 319 3.2 12.9 0.00 7.90 0.00 86 1016.2
20260509005037 22 275 3.2 12.9 0.00 7.90 0.00 86 1016.2
20260509004609 22 19 8.0 32.2 0.00 8.03 0.00 86 1016.1
20260509004537 22 103 12.9 32.2 0.00 8.03 0.00 86 1016.1
20260509004058 22 242 0.0 6.4 0.00 8.15 0.00 87 1016.1
20260509004037 22 213 0.0 11.3 0.00 8.15 0.00 87 1016.1
20260509003549 22 316 8.0 24.1 0.00 8.31 0.00 87 1016.1
20260509003537 22 124 8.0 24.1 0.00 8.31 0.00 87 1016.1
20260509003039 22 310 0.0 29.0 0.00 8.33 0.00 87 1016.1
20260509003037 22 306 0.0 29.0 0.00 8.33 0.00 87 1016.1
20260509002537 22 307 6.4 29.0 0.00 8.41 0.00 87 1016.0
20260509002528 22 231 8.0 29.0 0.00 8.41 0.00 87 1015.9
20260509002037 22 154 4.8 33.8 0.00 8.43 0.00 87 1015.8
20260509002018 22 23 9.7 33.8 0.00 8.43 0.00 87 1015.8
20260509001537 22 3 6.4 27.4 0.00 8.46 0.00 87 1015.8
20260509001508 22 298 3.2 27.4 0.00 8.46 0.00 87 1015.8
20260509001037 22 230 4.8 17.7 0.00 8.46 0.00 87 1015.7
20260509000958 22 280 3.2 17.7 0.00 8.48 0.00 87 1015.8
20260509000537 22 259 4.8 24.1 0.00 8.51 0.00 87 1015.7
20260509000448 22 346 1.6 24.1 0.00 8.51 0.00 87 1015.7
20260509000036 22 63 6.4 25.7 0.00 8.64 0.00 87 1015.8
20260508235938 22 262 9.7 25.7 0.00 8.64 0.00 87 1015.7
20260508235537 22 314 8.0 16.1 0.00 8.66 0.00 87 1015.8
20260508235428 22 146 6.4 16.1 0.00 8.66 0.00 87 1015.8
20260508235037 22 98 3.2 22.5 0.00 8.69 0.00 87 1015.8
20260508234918 22 41 0.0 22.5 0.00 8.76 0.00 87 1015.8
20260508234537 22 76 6.4 20.9 0.00 8.79 0.00 87 1015.8
20260508234408 22 32 8.0 20.9 0.00 8.79 0.00 87 1015.8
20260508234037 22 283 8.0 20.9 0.00 8.84 0.00 87 1015.8
20260508233537 22 71 12.9 40.2 0.00 8.86 0.00 86 1015.8
20260508233348 22 44 6.4 12.9 0.00 8.86 0.00 86 1015.8
20260508233037 22 238 1.6 9.7 0.00 8.92 0.00 86 1015.7
20260508232838 22 35 0.0 14.5 0.00 8.92 0.00 86 1015.7
20260508232536 22 249 8.0 14.5 0.00 8.92 0.00 86 1015.7
20260508232328 22 282 3.2 12.9 0.00 8.92 0.00 86 1015.6
20260508232037 22 225 1.6 12.9 0.00 8.92 0.00 86 1015.6
20260508231818 22 227 4.8 11.3 0.00 8.92 0.00 86 1015.5
20260508231536 22 340 0.0 17.7 0.00 8.92 0.00 86 1015.4
20260508231308 22 181 1.6 17.7 0.00 8.92 0.00 86 1015.4
20260508231037 22 108 6.4 12.9 0.00 8.97 0.00 86 1015.4
20260508230757 22 277 1.6 9.7 0.00 8.99 0.00 86 1015.4
20260508230536 22 31 0.0 11.3 0.00 8.99 0.00 86 1015.3
20260508230248 22 171 1.6 17.7 0.00 8.99 0.00 86 1015.2
20260508230037 22 200 4.8 20.9 0.00 8.99 0.00 86 1015.2
20260508225737 22 324 11.3 20.9 0.00 9.02 0.00 86 1015.1
20260508225536 22 248 4.8 19.3 0.00 9.07 0.00 86 1015.1
20260508225228 22 256 9.7 19.3 0.00 9.12 0.00 86 1015.0
20260508225036 22 244 6.4 12.9 0.00 9.12 0.00 86 1015.0
20260508224717 22 212 4.8 9.7 0.00 9.12 0.00 86 1014.9
20260508224536 22 4 1.6 16.1 0.00 9.12 0.00 86 1015.0
20260508224036 22 147 1.6 29.0 0.00 9.12 0.00 86 1014.9
20260508223657 22 282 6.4 20.9 0.00 9.12 0.00 86 1014.8
20260508223536 22 265 4.8 38.6 0.00 9.12 0.00 86 1014.8
20260508223148 22 341 17.7 38.6 0.00 9.12 0.00 86 1014.8
20260508223036 22 203 8.0 22.5 0.00 9.12 0.00 86 1014.7
20260508222637 22 43 14.5 25.7 0.00 9.12 0.00 86 1014.7
20260508222536 22 233 9.7 25.7 0.00 9.12 0.00 86 1014.6
20260508222128 22 18 11.3 27.4 0.00 9.12 0.00 86 1014.7
20260508222036 22 57 8.0 27.4 0.00 9.12 0.00 86 1014.7
20260508221617 22 174 6.4 27.4 0.00 9.14 0.00 87 1014.6
20260508221536 22 295 8.0 27.4 0.00 9.14 0.00 87 1014.5
20260508221108 22 162 6.4 22.5 0.00 9.14 0.00 87 1014.4
20260508221036 22 254 3.2 22.5 0.00 9.14 0.00 87 1014.4
20260508220557 22 224 16.1 24.1 0.00 9.14 0.00 87 1014.3
20260508220536 22 237 16.1 24.1 0.00 9.14 0.00 87 1014.2
20260508220047 22 348 12.9 30.6 0.00 9.17 0.00 87 1014.2
20260508220036 22 330 11.3 30.6 0.00 9.17 0.00 87 1014.3
20260508215538 22 14 12.9 40.2 0.00 9.17 0.00 87 1014.1
20260508215535 22 10 12.9 40.2 0.00 9.17 0.00 87 1014.1
20260508215036 22 28 4.8 24.1 0.00 9.17 0.00 87 1014.2
20260508215027 22 233 6.4 24.1 0.00 9.17 0.00 87 1014.2
20260508214535 22 344 6.4 41.8 0.00 9.17 0.00 87 1014.0
20260508214517 22 355 9.7 41.8 0.00 9.17 0.00 87 1014.1
20260508214007 22 298 11.3 17.7 0.00 9.17 0.00 87 1014.1
20260508213457 22 228 4.8 11.3 0.00 9.17 0.00 87 1014.1
20260508213036 22 215 1.6 11.3 0.00 9.17 0.00 87 1014.0
20260508212947 22 43 3.2 17.7 0.00 9.17 0.00 87 1014.1
20260508212535 22 359 8.0 30.6 0.00 9.19 0.00 87 1014.1
20260508212437 22 233 11.3 30.6 0.00 9.19 0.00 87 1014.0
20260508212036 22 52 14.5 30.6 0.00 9.25 0.00 87 1014.1
20260508211928 22 242 6.4 17.7 0.00 9.25 0.00 88 1013.9
20260508211535 22 8 8.0 19.3 0.00 9.25 0.00 88 1013.9
20260508211417 22 51 6.4 19.3 0.00 9.25 0.00 88 1013.9
20260508211036 22 43 11.3 19.3 0.00 9.25 0.00 88 1013.8
20260508210906 22 128 1.6 12.9 0.00 9.25 0.00 88 1013.8
20260508210535 22 51 1.6 20.9 0.00 9.27 0.00 88 1013.7
20260508210357 22 49 3.2 20.9 0.00 9.27 0.00 88 1013.7
20260508210035 23 31 8.0 16.1 0.00 9.27 0.00 88 1013.7
20260508205846 23 360 3.2 16.1 0.00 9.27 0.00 88 1013.6
20260508205535 23 259 1.6 19.3 0.00 9.27 0.00 88 1013.6
20260508205337 22 87 6.4 19.3 0.00 9.27 0.00 88 1013.5
20260508205036 22 74 3.2 27.4 0.00 9.30 0.00 88 1013.5
20260508204826 22 109 9.7 30.6 0.00 9.30 0.00 88 1013.5
20260508204535 22 72 11.3 30.6 0.00 9.30 0.00 88 1013.5
20260508204317 22 291 8.0 27.4 0.00 9.32 0.00 88 1013.5
20260508204036 22 36 16.1 27.4 0.00 9.32 0.00 88 1013.5
20260508203535 22 227 6.4 25.7 0.00 9.32 0.00 88 1013.4
20260508203257 22 19 8.0 25.7 0.00 9.32 0.00 88 1013.3
20260508203035 22 56 8.0 25.7 0.00 9.32 0.00 88 1013.4
20260508202746 22 64 11.3 33.8 0.00 9.32 0.00 88 1013.4
20260508202535 22 11 6.4 35.4 0.00 9.32 0.00 88 1013.2
20260508202237 22 65 11.3 35.4 0.00 9.35 0.00 88 1013.2
20260508202035 22 30 4.8 29.0 0.00 9.35 0.00 88 1013.2
20260508201726 22 210 8.0 40.2 0.00 9.40 0.00 88 1013.1
20260508201535 22 127 16.1 40.2 0.00 9.40 0.00 88 1013.1
20260508201217 23 291 4.8 41.8 0.00 9.40 0.00 88 1013.2
20260508201035 23 100 8.0 41.8 0.00 9.40 0.00 88 1013.2
20260508200706 23 85 4.8 22.5 0.00 9.40 0.00 88 1013.3
20260508200535 23 130 3.2 22.5 0.00 9.42 0.00 88 1013.2
20260508200156 23 51 9.7 30.6 0.00 9.45 0.00 88 1013.4
20260508200035 23 60 14.5 30.6 0.00 9.45 0.00 88 1013.4
20260508195646 23 47 4.8 53.1 0.00 9.45 0.00 88 1013.4
20260508195535 23 90 14.5 53.1 0.00 9.45 0.00 88 1013.4
20260508195136 23 83 6.4 24.1 0.00 9.45 0.00 88 1013.4
20260508195035 23 353 9.7 24.1 0.00 9.45 0.00 88 1013.4
20260508194626 23 190 6.4 24.1 0.00 9.47 0.00 88 1013.4
20260508194535 23 324 3.2 24.1 0.00 9.47 0.00 88 1013.4
20260508194116 23 336 3.2 20.9 0.00 9.50 0.00 88 1013.3
20260508194035 23 230 1.6 20.9 0.00 9.53 0.00 88 1013.3
20260508193607 23 49 14.5 25.7 0.00 9.53 0.00 88 1013.3
20260508193534 23 53 12.9 25.7 0.00 9.53 0.00 88 1013.3
20260508193056 23 37 19.3 37.0 0.00 9.53 0.00 88 1013.4
20260508193035 23 56 14.5 37.0 0.00 9.53 0.00 88 1013.3
20260508192546 23 113 11.3 27.4 0.00 9.63 0.00 88 1013.3
20260508192535 23 75 12.9 27.4 0.00 9.63 0.00 88 1013.3
20260508192037 23 111 16.1 27.4 0.00 9.73 0.00 88 1013.2
20260508192035 23 80 16.1 27.4 0.00 9.73 0.00 88 1013.2
20260508191535 23 39 8.0 37.0 0.00 9.78 0.00 88 1013.2
20260508191525 23 67 11.3 37.0 0.00 9.78 0.00 88 1013.2
20260508191034 23 59 11.3 25.7 0.00 9.86 0.00 88 1013.3
20260508191016 23 27 8.0 25.7 0.00 9.86 0.00 88 1013.3
20260508190534 23 20 8.0 25.7 0.00 9.91 0.00 88 1013.2
20260508190505 23 259 11.3 25.7 0.00 9.91 0.00 88 1013.1
20260508190034 23 235 4.8 20.9 0.00 10.13 0.00 88 1013.1
20260508185956 23 15 4.8 20.9 0.00 10.13 0.00 88 1013.1
20260508185534 23 52 6.4 14.5 0.00 10.13 0.00 88 1013.2
20260508185445 23 42 6.4 12.9 0.00 10.16 0.00 88 1013.2
20260508185035 23 9 3.2 33.8 0.00 10.26 0.00 88 1013.2
20260508184936 23 270 6.4 33.8 0.00 10.29 0.00 88 1013.1
20260508184534 23 58 12.9 41.8 0.00 10.31 0.00 88 1013.3
20260508184426 23 21 8.0 41.8 0.00 10.39 0.00 88 1013.2
20260508184035 23 38 9.7 37.0 0.00 10.41 0.00 88 1013.2
20260508183916 23 44 6.4 37.0 0.00 10.41 0.00 88 1013.2
20260508183534 23 67 11.3 33.8 0.00 10.41 0.00 88 1013.2
20260508183406 23 10 9.7 32.2 0.00 10.41 0.00 88 1013.2
20260508183035 23 327 6.4 27.4 0.00 10.49 0.00 88 1013.3
20260508182855 23 353 4.8 27.4 0.00 10.52 0.00 88 1013.3
20260508182534 23 6 3.2 46.7 0.00 10.59 0.00 88 1013.3
20260508182346 23 34 6.4 46.7 0.00 10.59 0.00 88 1013.4
20260508182035 23 346 6.4 29.0 0.00 10.62 0.00 88 1013.4
20260508181534 23 47 12.9 30.6 0.00 10.72 0.00 88 1013.4
20260508181326 23 146 11.3 24.1 0.00 10.72 0.00 88 1013.3
20260508181034 24 128 8.0 16.1 0.00 10.74 0.00 88 1013.3
20260508180815 24 81 0.0 19.3 0.00 10.74 0.00 88 1013.3
20260508180534 24 13 4.8 19.3 0.00 10.79 0.00 88 1013.3
20260508180306 24 257 4.8 40.2 0.00 10.82 0.00 88 1013.2
20260508180034 24 275 11.3 40.2 0.00 10.90 0.00 87 1013.2
20260508175755 24 323 8.0 32.2 0.00 10.95 0.00 87 1013.2
20260508175534 24 269 11.3 32.2 0.00 10.97 0.00 87 1013.1
20260508175246 24 33 6.4 22.5 0.00 11.00 0.00 87 1013.2
20260508175034 24 276 8.0 41.8 0.00 11.05 0.00 87 1013.3
20260508174735 24 10 11.3 41.8 0.00 11.05 0.00 87 1013.2
20260508174534 24 46 17.7 37.0 0.00 11.05 0.00 87 1013.3
20260508174226 24 266 17.7 37.0 0.00 11.13 0.00 87 1013.1
20260508174033 24 56 11.3 24.1 0.00 11.13 0.00 87 1013.3
20260508173715 25 9 8.0 25.7 0.00 11.13 0.00 87 1013.2
20260508173534 25 56 4.8 27.4 0.00 11.15 0.00 87 1013.3
20260508173205 25 70 11.3 27.4 0.00 11.18 0.00 87 1013.3
20260508173034 25 360 4.8 17.7 0.00 11.18 0.00 87 1013.3
20260508172655 25 354 3.2 12.9 0.00 11.23 0.00 87 1013.3
20260508172534 25 276 3.2 12.9 0.00 11.28 0.00 87 1013.3
20260508172145 25 80 3.2 22.5 0.05 11.30 0.00 87 1013.3
20260508172033 25 56 9.7 22.5 0.08 11.30 0.00 87 1013.3
20260508171635 25 191 3.2 24.1 0.36 11.43 0.00 87 1013.2
20260508171534 25 11 14.5 24.1 0.36 11.43 0.00 87 1013.2
20260508171125 25 20 3.2 19.3 0.46 11.46 0.00 87 1013.1
20260508171033 25 27 11.3 19.3 0.46 11.48 0.00 87 1013.2
20260508170615 25 22 4.8 19.3 0.56 11.56 0.00 87 1013.1
20260508170534 25 66 9.7 19.3 0.56 11.56 0.00 87 1013.2
20260508170105 25 45 0.0 25.7 0.61 11.58 0.00 87 1013.2
20260508170033 25 39 3.2 25.7 0.71 11.61 0.00 86 1013.3
20260508165556 25 227 1.6 14.5 0.94 11.66 0.00 87 1013.3
20260508165534 25 284 3.2 14.5 0.94 11.66 0.00 86 1013.3
20260508165045 25 15 6.4 11.3 1.24 11.66 0.00 86 1013.3
20260508165033 25 22 4.8 11.3 1.24 11.66 0.00 86 1013.3
20260508164536 25 277 3.2 16.1 1.45 11.66 0.00 86 1013.4
20260508164534 25 250 3.2 16.1 1.45 11.66 0.00 86 1013.4
20260508164033 25 303 6.4 25.7 1.57 11.71 0.00 86 1013.4
20260508164025 25 294 6.4 25.7 1.57 11.71 0.00 86 1013.4
20260508163534 25 78 11.3 32.2 1.78 11.73 0.00 86 1013.5
20260508163515 25 8 12.9 32.2 1.78 11.73 0.00 86 1013.4
20260508163033 25 86 9.7 20.9 2.03 11.76 0.00 85 1013.5
20260508163005 25 16 8.0 20.9 2.06 11.76 0.00 85 1013.5
20260508162534 26 41 8.0 16.1 2.26 11.84 0.00 85 1013.6
20260508162454 26 34 1.6 9.7 2.29 11.89 0.00 85 1013.6
20260508162033 26 35 1.6 12.9 2.26 11.91 0.00 85 1013.6
20260508161945 26 39 1.6 12.9 2.24 11.89 0.00 85 1013.6
20260508161434 26 64 1.6 22.5 2.11 11.66 0.00 84 1013.6
20260508161033 26 278 4.8 20.9 2.21 11.66 0.00 84 1013.6
20260508160925 26 10 4.8 20.9 2.21 11.66 0.00 84 1013.5
20260508160534 26 59 6.4 22.5 2.26 11.76 0.00 84 1013.6
20260508160414 26 43 4.8 14.5 2.26 11.73 0.00 84 1013.6
20260508160034 26 243 9.7 14.5 2.39 11.63 0.00 84 1013.6
20260508155905 26 232 0.0 3.2 2.29 11.51 0.00 84 1013.7
20260508155534 25 26 0.0 9.7 2.26 11.51 0.00 84 1013.7
20260508155354 25 270 3.2 9.7 2.21 11.51 0.00 84 1013.7
20260508155033 26 157 1.6 9.7 2.11 11.30 0.00 84 1013.7
20260508154844 26 360 3.2 6.4 2.06 11.25 0.00 84 1013.8
20260508154533 26 270 0.0 24.1 2.01 11.15 0.00 84 1013.8
20260508154334 26 306 1.6 24.1 2.08 11.13 0.00 84 1013.8
20260508154033 26 256 4.8 16.1 2.08 11.10 0.00 84 1013.8
20260508153533 26 244 4.8 17.7 2.08 10.97 0.00 84 1013.8
20260508153314 26 268 8.0 12.9 2.34 10.97 0.00 84 1013.8
20260508153033 26 266 1.6 8.0 2.21 10.79 0.00 84 1013.9
20260508152805 26 295 1.6 6.4 2.16 10.67 0.00 84 1013.9
20260508152533 26 222 1.6 20.9 2.18 10.67 0.00 83 1013.9
20260508152254 26 72 8.0 27.4 2.26 10.62 0.00 83 1013.8
20260508152033 26 55 11.3 27.4 2.29 10.64 0.00 83 1013.8
20260508151745 26 232 8.0 11.3 2.39 10.59 0.00 83 1013.8
20260508151532 26 316 1.6 20.9 2.44 10.62 0.00 83 1013.9
20260508151234 26 328 9.7 20.9 2.39 10.49 0.00 83 1013.9
20260508151033 26 229 3.2 19.3 2.36 10.46 0.00 83 1013.8
20260508150724 26 350 6.4 12.9 2.39 10.41 0.00 83 1013.8
20260508150532 26 320 4.8 11.3 2.36 10.39 0.00 83 1013.9
20260508150214 26 308 3.2 9.7 2.49 10.29 0.00 83 1013.9
20260508150033 26 37 1.6 9.7 2.36 10.16 0.00 83 1013.9
20260508145704 26 23 3.2 9.7 2.36 10.26 0.00 83 1013.9
20260508145533 26 280 1.6 11.3 2.39 10.24 0.00 83 1013.9
20260508145153 26 244 6.4 11.3 2.36 10.19 0.00 82 1014.0
20260508145032 26 273 1.6 11.3 2.36 10.16 0.00 82 1014.0
20260508144644 26 180 4.8 8.0 2.39 10.26 0.00 82 1014.0
20260508144533 26 217 1.6 6.4 2.49 10.24 0.00 82 1014.0
20260508144134 26 146 1.6 12.9 2.36 10.06 0.00 82 1014.0
20260508144032 26 231 3.2 12.9 2.39 10.06 0.00 82 1014.0
20260508143624 26 238 1.6 8.0 2.44 9.86 0.00 81 1014.0
20260508143533 26 222 3.2 8.0 2.44 9.86 0.00 81 1014.0
20260508143032 26 258 1.6 8.0 2.41 9.58 0.00 81 1014.0
20260508142603 26 248 1.6 9.7 2.41 9.47 0.00 81 1014.0
20260508142532 26 230 1.6 9.7 2.41 9.47 0.00 81 1014.1
20260508142054 26 249 4.8 16.1 2.44 9.35 0.00 81 1014.0
20260508142032 26 242 3.2 17.7 2.44 9.35 0.00 81 1014.0
20260508141543 26 217 9.7 16.1 2.36 9.19 0.00 80 1014.0
20260508141532 26 223 8.0 16.1 2.36 9.19 0.00 80 1013.9
20260508141035 26 229 3.2 8.0 2.44 9.12 0.00 80 1013.9
20260508141033 26 201 3.2 8.0 2.44 9.12 0.00 80 1013.9
20260508140532 26 225 8.0 11.3 2.54 9.09 0.00 80 1013.9
20260508140032 26 262 3.2 8.0 2.44 9.02 0.00 80 1013.8
20260508140014 26 253 3.2 8.0 2.49 9.07 0.00 80 1013.9
20260508135532 26 245 3.2 9.7 2.59 8.99 0.00 80 1013.7
20260508135504 26 252 3.2 9.7 2.59 8.99 0.00 80 1013.7
20260508135032 26 222 1.6 6.4 2.62 8.97 0.00 80 1013.7
20260508134532 26 62 9.7 19.3 2.62 8.97 0.00 80 1013.6
20260508134444 26 352 6.4 17.7 2.67 8.97 0.00 80 1013.6
20260508134032 26 19 3.2 14.5 2.74 8.97 0.00 80 1013.6
20260508133933 26 274 3.2 11.3 2.74 8.94 0.00 80 1013.6
20260508133423 27 17 1.6 16.1 2.51 8.61 0.00 80 1013.5
20260508133032 26 289 8.0 16.1 2.62 8.66 0.00 80 1013.5
20260508132913 26 36 1.6 12.9 2.51 8.56 0.00 80 1013.4
20260508132531 26 71 4.8 12.9 2.49 8.59 0.00 81 1013.4
20260508132032 26 170 1.6 6.4 2.36 8.43 0.00 81 1013.4
20260508131853 26 189 1.6 4.8 2.44 8.48 0.00 81 1013.4
20260508131531 26 169 3.2 4.8 2.41 8.41 0.00 81 1013.4
20260508131343 26 180 1.6 4.8 2.39 8.36 0.00 81 1013.4
20260508131032 26 211 1.6 4.8 2.44 8.26 0.00 82 1013.5
20260508130833 26 190 3.2 6.4 2.39 8.18 0.00 82 1013.4
20260508130531 26 211 3.2 6.4 2.36 8.03 0.00 82 1013.3
20260508130323 26 213 1.6 6.4 2.39 7.98 0.00 82 1013.4
20260508130032 26 191 1.6 6.4 2.39 7.98 0.00 82 1013.4
20260508125813 26 188 3.2 6.4 2.34 7.90 0.00 82 1013.3
20260508125532 26 241 1.6 8.0 2.24 7.80 0.00 82 1013.3
20260508125305 26 200 1.6 8.0 2.36 7.80 0.00 82 1013.2
20260508125032 26 208 1.6 8.0 2.29 7.75 0.00 82 1013.2
20260508124753 26 208 1.6 6.4 2.34 7.65 0.00 82 1013.0
20260508124532 26 175 3.2 8.0 2.26 7.59 0.00 82 1013.0
20260508124243 26 194 3.2 6.4 2.21 7.47 0.00 82 1013.0
20260508124031 26 202 3.2 6.4 2.21 7.42 0.00 82 1013.0
20260508123733 26 172 1.6 6.4 2.16 7.34 0.00 82 1012.9
20260508123532 26 167 3.2 6.4 2.11 7.32 0.00 82 1012.9
20260508123221 26 170 3.2 6.4 2.03 7.16 0.00 82 1013.0
20260508123031 26 192 3.2 6.4 2.01 7.14 0.00 82 1013.0
20260508122713 26 201 3.2 6.4 2.08 7.16 0.00 81 1012.9
20260508122532 26 223 1.6 4.8 2.06 7.16 0.00 81 1012.8
20260508122202 26 180 1.6 6.4 2.11 7.16 0.00 81 1012.8
20260508122031 26 167 4.8 6.4 2.11 7.16 0.00 81 1012.8
20260508121653 26 138 1.6 6.4 2.16 7.11 0.00 80 1012.7
20260508121532 26 165 3.2 6.4 2.16 7.04 0.00 80 1012.7
20260508121142 26 191 3.2 8.0 2.08 7.01 0.00 80 1012.6
20260508121031 27 178 4.8 8.0 2.03 6.93 0.00 80 1012.5
20260508120633 27 190 3.2 6.4 1.93 6.96 0.00 80 1012.5
20260508120531 27 276 0.0 1.6 1.91 6.93 0.00 79 1012.4
20260508120122 26 15 1.6 1.6 1.83 6.76 0.00 80 1012.4
20260508120031 26 19 1.6 1.6 1.78 6.71 0.00 80 1012.4
20260508115613 26 263 0.0 3.2 1.78 6.63 0.00 80 1012.5
20260508115531 26 252 0.0 3.2 1.73 6.58 0.00 80 1012.4
20260508115102 26 260 1.6 3.2 1.70 6.53 0.00 80 1012.3
20260508115031 26 285 1.6 3.2 1.75 6.58 0.00 80 1012.3
20260508114552 26 259 1.6 3.2 1.68 6.45 0.00 80 1012.3
20260508114531 26 241 1.6 3.2 1.63 6.43 0.00 80 1012.3
20260508114041 26 237 1.6 6.4 1.60 6.32 0.00 80 1012.3
20260508114031 26 187 1.6 6.4 1.57 6.30 0.00 80 1012.3
20260508113533 26 129 3.2 8.0 1.50 6.30 0.00 80 1012.4
20260508113531 26 110 3.2 8.0 1.50 6.30 0.00 80 1012.4
20260508113031 26 222 4.8 9.7 1.42 6.17 0.00 80 1012.3
20260508113022 26 222 3.2 9.7 1.42 6.17 0.00 80 1012.3
20260508112531 26 233 6.4 9.7 1.45 6.25 0.00 80 1012.3
20260508112512 26 219 6.4 8.0 1.45 6.25 0.00 80 1012.2
20260508112031 26 219 0.0 6.4 1.35 6.05 0.00 80 1012.1
20260508112002 26 285 0.0 6.4 1.35 6.05 0.00 80 1012.1
20260508111531 26 205 3.2 11.3 1.24 5.94 0.00 81 1012.0
20260508111452 26 218 6.4 11.3 1.24 5.94 0.00 80 1012.0
20260508111031 26 204 3.2 8.0 1.30 5.87 0.00 80 1012.1
20260508110942 26 170 3.2 8.0 1.30 5.87 0.00 80 1012.1
20260508110530 26 208 3.2 8.0 1.27 5.92 0.00 79 1012.1
20260508110431 27 157 4.8 8.0 1.27 5.87 0.00 79 1012.1
20260508110031 27 235 4.8 11.3 1.27 5.87 0.00 79 1011.9
20260508105922 27 258 3.2 11.3 1.30 5.84 0.00 79 1011.9
20260508105531 27 227 4.8 8.0 1.24 5.79 0.00 78 1011.8
20260508105412 27 174 1.6 6.4 1.22 5.77 0.00 78 1011.8
20260508105031 27 243 1.6 3.2 1.24 5.71 0.00 78 1011.8
20260508104902 27 10 0.0 3.2 1.27 5.69 0.00 78 1011.8
20260508104531 27 351 1.6 3.2 1.35 5.66 0.00 78 1011.8
20260508104351 27 1 1.6 4.8 1.37 5.66 0.00 78 1011.8
20260508104030 27 277 1.6 6.4 1.42 5.64 0.00 78 1011.7
20260508103842 27 283 3.2 6.4 1.42 5.64 0.00 78 1011.7
20260508103531 27 290 1.6 3.2 1.55 5.61 0.00 78 1011.7
20260508103030 27 315 1.6 4.8 1.75 5.59 0.00 78 1011.7
20260508102822 27 328 1.6 9.7 1.73 5.49 0.00 78 1011.7
20260508102531 27 307 3.2 9.7 1.83 5.49 0.00 78 1011.6
20260508102030 27 242 1.6 6.4 1.91 5.44 0.00 78 1011.6
20260508101802 27 230 3.2 6.4 2.06 5.38 0.00 78 1011.6
20260508101530 27 208 3.2 6.4 2.06 5.33 0.00 78 1011.6
20260508101252 27 298 1.6 12.9 2.01 5.26 0.00 78 1011.5
20260508101030 27 220 4.8 12.9 2.11 5.18 0.00 78 1011.5
20260508100742 27 245 6.4 11.3 2.21 5.18 0.00 77 1011.4
20260508100530 27 259 8.0 11.3 2.34 5.16 0.00 77 1011.3
20260508100232 27 270 4.8 12.9 2.49 5.13 0.00 78 1011.2
20260508100030 27 252 4.8 14.5 2.57 5.05 0.00 77 1011.1
20260508095721 27 281 6.4 14.5 2.51 4.95 0.00 77 1011.1
20260508095530 27 240 9.7 12.9 2.51 4.95 0.00 77 1011.0
20260508095212 27 287 4.8 11.3 2.57 4.83 0.00 77 1011.0
20260508095030 27 265 1.6 11.3 2.54 4.80 0.00 77 1011.0
20260508094701 27 226 3.2 11.3 2.54 4.70 0.00 77 1011.0
20260508094530 27 228 4.8 11.3 2.51 4.65 0.00 77 1011.0
20260508094152 27 239 4.8 14.5 2.57 4.55 0.00 76 1011.0
20260508094030 27 111 3.2 14.5 2.57 4.47 0.00 76 1011.0
20260508093641 28 247 4.8 11.3 2.51 4.29 0.00 76 1011.0
20260508093530 28 264 1.6 11.3 2.54 4.29 0.00 76 1011.1
20260508093131 28 256 4.8 9.7 2.57 4.09 0.00 76 1011.1
20260508092621 28 243 3.2 8.0 2.59 3.86 0.00 75 1011.0
20260508092530 28 305 3.2 9.7 2.59 3.81 0.00 75 1011.1
20260508092111 28 283 6.4 12.9 2.57 3.63 0.00 75 1011.0
20260508092030 28 245 6.4 12.9 2.62 3.63 0.00 75 1011.0
20260508091601 28 220 3.2 9.7 2.67 3.45 0.00 75 1011.0
20260508091530 28 316 4.8 9.7 2.62 3.38 0.00 75 1011.0
20260508091051 28 43 1.6 12.9 2.54 3.35 0.00 75 1010.9
20260508091030 28 3 1.6 12.9 2.44 3.30 0.00 75 1010.9
20260508090541 28 37 8.0 14.5 2.62 3.12 0.00 75 1010.8
20260508090530 28 4 8.0 14.5 2.62 3.12 0.00 75 1010.7
20260508090033 28 198 1.6 8.0 2.57 2.82 0.00 75 1010.8
20260508090030 28 203 1.6 8.0 2.57 2.82 0.00 75 1010.8
20260508085530 28 201 3.2 9.7 2.72 2.77 0.00 76 1010.7
20260508085521 28 161 3.2 9.7 2.72 2.77 0.00 76 1010.7
20260508085030 28 188 4.8 11.3 2.74 2.62 0.00 75 1010.8
20260508085010 28 206 4.8 11.3 2.74 2.62 0.00 75 1010.8
20260508084530 28 186 3.2 9.7 2.67 2.44 0.00 75 1010.8
20260508084501 28 229 4.8 9.7 2.67 2.44 0.00 75 1010.8
20260508084030 28 306 3.2 8.0 2.62 2.24 0.00 75 1010.8
20260508083950 28 147 4.8 9.7 2.62 2.18 0.00 75 1010.8
20260508083529 28 224 6.4 9.7 2.72 2.13 0.00 75 1010.8
20260508083441 28 196 4.8 9.7 2.77 2.13 0.00 75 1010.8
20260508083029 28 360 1.6 8.0 2.57 1.85 0.00 75 1010.7
20260508082930 28 228 1.6 8.0 2.51 1.78 0.00 75 1010.7
20260508082529 28 229 4.8 8.0 2.49 1.65 0.00 76 1010.7
20260508082421 28 208 3.2 9.7 2.44 1.68 0.00 75 1010.7
20260508082029 28 270 4.8 11.3 2.44 1.52 0.00 75 1010.8
20260508081910 28 216 3.2 11.3 2.49 1.57 0.00 76 1010.8
20260508081530 28 237 3.2 9.7 2.41 1.35 0.00 76 1010.8
20260508081401 28 201 4.8 9.7 2.44 1.35 0.00 76 1010.8
20260508081029 28 190 4.8 9.7 2.57 1.40 0.00 76 1010.8
20260508080851 28 225 6.4 9.7 2.39 1.24 0.00 76 1010.8
20260508080529 28 173 4.8 11.3 2.18 1.12 0.00 76 1010.8
20260508080341 28 184 4.8 11.3 2.06 0.99 0.00 76 1010.8
20260508080029 28 163 4.8 9.7 2.03 0.94 0.00 76 1010.9
20260508075831 28 203 4.8 9.7 2.03 0.86 0.00 76 1010.9
20260508075529 28 179 4.8 9.7 2.01 0.81 0.00 76 1010.9
20260508075320 28 186 4.8 9.7 1.93 0.79 0.00 76 1010.9
20260508075029 28 146 6.4 12.9 1.91 0.69 0.00 76 1011.0
20260508074811 28 159 6.4 12.9 1.88 0.66 0.00 75 1010.9
20260508074530 28 185 6.4 12.9 1.88 0.69 0.00 75 1010.9
20260508074300 28 240 8.0 12.9 1.83 0.69 0.00 75 1011.0
20260508074029 28 225 6.4 14.5 1.73 0.56 0.00 75 1010.9
20260508073751 28 174 9.7 14.5 1.60 0.46 0.00 75 1011.0
20260508073528 28 238 8.0 16.1 1.57 0.38 0.00 75 1011.0
20260508073241 28 207 9.7 17.7 1.60 0.36 0.00 74 1011.0
20260508073029 28 163 8.0 17.7 1.60 0.30 0.00 74 1011.0
20260508072731 28 136 6.4 17.7 1.57 0.28 0.00 74 1011.0
20260508072529 28 227 6.4 17.7 1.55 0.23 0.00 73 1011.0
20260508072220 29 245 8.0 14.5 1.57 0.23 0.00 72 1011.0
20260508071711 30 261 8.0 17.7 1.40 0.08 0.00 71 1011.1
20260508071528 30 263 9.7 16.1 1.42 0.13 0.00 70 1011.0
20260508071200 31 224 4.8 11.3 1.37 0.13 0.00 71 1011.1
20260508071029 30 30 1.6 9.7 1.35 0.08 0.00 70 1011.1
20260508070651 30 25 6.4 11.3 1.42 0.15 0.00 70 1011.2
20260508070528 30 37 3.2 11.3 1.50 0.13 0.00 71 1011.1
20260508070140 30 352 4.8 11.3 1.52 0.15 0.00 71 1011.2
20260508070029 30 70 4.8 12.9 1.50 0.13 0.00 71 1011.3
20260508065529 30 62 8.0 16.1 1.42 0.13 0.00 71 1011.3
20260508065120 31 261 8.0 16.1 1.45 0.23 0.00 70 1011.4
20260508065029 31 246 6.4 16.1 1.42 0.18 0.00 71 1011.4
20260508064611 31 25 3.2 12.9 1.50 0.23 0.00 70 1011.4
20260508064528 30 17 1.6 12.9 1.45 0.20 0.00 71 1011.4
20260508064100 30 32 4.8 12.9 1.60 0.20 0.00 71 1011.4
20260508064029 30 249 6.4 12.9 1.60 0.20 0.00 71 1011.4
20260508063550 30 231 6.4 14.5 1.68 0.18 0.00 72 1011.5
20260508063528 30 257 6.4 16.1 1.68 0.18 0.00 72 1011.5
20260508063040 30 242 6.4 11.3 1.73 0.03 0.00 72 1011.6
20260508063028 30 256 4.8 11.3 1.73 0.03 0.00 72 1011.6
20260508062531 30 5 4.8 12.9 1.68 0.08 0.00 72 1011.7
20260508062529 30 43 4.8 12.9 1.68 0.08 0.00 72 1011.7
20260508062028 30 12 9.7 19.3 1.55 25.37 0.00 72 1011.7
20260508062020 30 54 8.0 19.3 1.55 25.37 0.00 72 1011.7
20260508061529 30 359 6.4 19.3 1.45 0.00 0.00 72 1011.7
20260508061510 30 307 4.8 19.3 1.45 0.00 0.00 72 1011.7
20260508061028 30 360 9.7 24.1 1.50 0.03 0.00 72 1011.7
20260508061000 30 335 8.0 24.1 1.50 0.03 0.00 72 1011.7
20260508060529 30 290 4.8 19.3 1.37 25.30 0.00 73 1011.7
20260508060450 30 2 3.2 19.3 1.37 25.30 0.00 73 1011.8
20260508060028 30 28 4.8 12.9 1.30 25.35 0.00 73 1011.8
20260508055939 30 234 6.4 16.1 1.30 25.35 0.00 73 1011.8
20260508055528 29 253 11.3 19.3 1.37 25.30 0.00 72 1011.8
20260508055430 29 247 9.7 19.3 1.37 25.27 0.00 72 1011.8
20260508055028 30 240 9.7 16.1 1.37 25.27 0.00 70 1011.8
20260508054919 31 240 11.3 16.1 1.40 25.27 0.00 70 1011.8